Satellite: AO-49
Catalog number: 27605
Epoch time:      05188.16690926
Element set:     780
Inclination:      064.5594 deg
RA of node:       074.5837 deg
Eccentricity:    0.0080250
Arg of perigee:   236.3283 deg
Mean anomaly:     123.0184 deg
Mean motion:   14.72104851 rev/day
Decay rate:       1.50e-06 rev/day^2
Epoch rev:           13679
Checksum:              312

Satellite: UO-36
Catalog number: 25693
Epoch time:      05188.56278681
Element set:     364
Inclination:      064.5574 deg
RA of node:       221.1364 deg
Eccentricity:    0.0023036
Arg of perigee:   210.0978 deg
Mean anomaly:     149.8805 deg
Mean motion:   14.78518496 rev/day
Decay rate:       2.30e-06 rev/day^2
Epoch rev:           33483
Checksum:              327

/EX
SB KEPS @ AMSAT  $ORB05188.W
Orbital Elements  05188.WEATHER

HR AMSAT ORBITAL ELEMENTS FOR WEATHER SATELLITES
FROM WA5QGD FORT WORTH,TX July 7, 2005
Send SUBSCRIBE KEPS/UNSUBSCRIBE KEPS to majordomo@amsat.org only
BID: ORB05188.W
TO ALL RADIO AMATEURS BT

Satellite: NOAA-18
Catalog number: 28654
Epoch time:      05184.37333149
Element set:      50
Inclination:      098.7447 deg
RA of node:       130.9569 deg
Eccentricity:    0.0015125
Arg of perigee:   127.4375 deg
Mean anomaly:     232.8164 deg
Mean motion:   14.10858311 rev/day
Decay rate:       -4.0e-07 rev/day^2
Epoch rev:             619
Checksum:              295

Satellite: SICH-1
Catalog number: 23657
Epoch time:      05185.86692578
Element set:    0475
Inclination:      082.5298 deg
RA of node:       021.7525 deg
Eccentricity:    0.0025810
Arg of perigee:   065.7699 deg
Mean anomaly:     294.6208 deg
Mean motion:   14.81189082 rev/day
Decay rate:       2.99e-06 rev/day^2
Epoch rev:           53057
Checksum:              347

Satellite: MET-2/21
Catalog number: 22782
Epoch time:      05187.79582278
Element set:    0245
Inclination:      082.5474 deg
RA of node:       245.4243 deg
Eccentricity:    0.0023796
Arg of perigee:   070.6954 deg
Mean anomaly:     289.6795 deg
Mean motion:   13.83591811 rev/day
Decay rate:       1.47e-06 rev/day^2
Epoch rev:           59828
Checksum:              358

Satellite: FENGYUN1
Catalog number: 25730
Epoch time:      05187.83797078
Element set:    0456
Inclination:      098.6058 deg
RA of node:       188.8368 deg
Eccentricity:    0.0015276
Arg of perigee:   047.4345 deg
Mean anomaly:     312.8108 deg
Mean motion:   14.11797525 rev/day
Decay rate:       2.49e-06 rev/day^2
Epoch rev:           31728
Checksum:              339

Satellite: RESURS
Catalog number: 25394
Epoch time:      05187.88486334
Element set:     128
Inclination:      098.5386 deg
RA of node:       256.5364 deg
Eccentricity:    0.0002498
Arg of perigee:   099.8924 deg
Mean anomaly:     260.2537 deg
Mean motion:   14.24070978 rev/day
Decay rate:        7.0e-08 rev/day^2
Epoch rev:           36325
Checksum:              337

Satellite: OKEAN-4
Catalog number: 23317
Epoch time:      05188.06394571
Element set:     671
Inclination:      082.5387 deg
RA of node:       238.8484 deg
Eccentricity:    0.0024115
Arg of perigee:   072.1440 deg
Mean anomaly:     288.2414 deg
Mean motion:   14.82180398 rev/day
Decay rate:       3.80e-06 rev/day^2
Epoch rev:           57885
Checksum:              319

Satellite: OKEAN-0
Catalog number: 25860
Epoch time:      05188.06627354
Element set:     478
Inclination:      097.7555 deg
RA of node:       213.0847 deg
Eccentricity:    0.0001910
Arg of perigee:   108.9124 deg
Mean anomaly:     251.2292 deg
Mean motion:   14.73265242 rev/day
Decay rate:       1.41e-06 rev/day^2
Epoch rev:           32093
Checksum:              286

Satellite: MET-3/5
Catalog number: 21655
Epoch time:      05188.31020225
Element set:     859
Inclination:      082.5556 deg
RA of node:       144.4545 deg
Eccentricity:    0.0012936
Arg of perigee:   178.6626 deg
Mean anomaly:     181.4567 deg
Mean motion:   13.17000408 rev/day
Decay rate:        5.1e-07 rev/day^2
Epoch rev:           66796
Checksum:              308

Satellite: NOAA-16
Catalog number: 26536
Epoch time:      05188.33970112
Element set:     414
Inclination:      099.0141 deg
RA of node:       146.9030 deg
Eccentricity:    0.0010611
Arg of perigee:   016.2205 deg
Mean anomaly:     343.9313 deg
Mean motion:   14.12253496 rev/day
Decay rate:        9.0e-08 rev/day^2
Epoch rev:           24690
Checksum:              263

Satellite: NOAA-15
Catalog number: 25338
Epoch time:      05188.43938876
Element set:      97
Inclination:      098.5119 deg
RA of node:       196.1565 deg
Eccentricity:    0.0009688
Arg of perigee:   304.2091 deg
Mean anomaly:     055.8175 deg
Mean motion:   14.24523319 rev/day
Decay rate:       1.00e-06 rev/day^2
Epoch rev:           37163
Checksum:              325

Satellite: NOAA-11
Catalog number: 19531
Epoch time:      05188.45053990
Element set:     645
Inclination:      098.8458 deg
RA of node:       275.3051 deg
Eccentricity:    0.0010876
Arg of perigee:   247.6085 deg
Mean anomaly:     112.3968 deg
Mean motion:   14.14758111 rev/day
Decay rate:       -2.0e-07 rev/day^2
Epoch rev:           86579
Checksum:              324

Satellite: NOAA-17
Catalog number: 27453
Epoch time:      05188.45937924
Element set:     436
Inclination:      098.6598 deg
RA of node:       261.6646 deg
Eccentricity:    0.0011518
Arg of perigee:   001.4425 deg
Mean anomaly:     358.6817 deg
Mean motion:   14.23680987 rev/day
Decay rate:       2.00e-06 rev/day^2
Epoch rev:           15772
Checksum:              335

